| time (UTC) | temp F | wind direction | speed MPH | gust MPH | rain 1hr in | rain 24hr in | rain mn in | humidity % | barometer mb |
| 20260902194813 | 96 | 248 | 0.0 | 0.0 | 0.00 | 0.00 | 0.00 | 39 | 1009.8 |
| 20260902194231 | 95 | 112 | 1.0 | 1.0 | 0.00 | 0.00 | 0.00 | 40 | 1009.8 |
| 20260902193638 | 95 | 135 | 1.0 | 1.0 | 0.00 | 0.00 | 0.00 | 40 | 1009.8 |
| 20260902193024 | 94 | 180 | 1.0 | 1.0 | 0.00 | 0.00 | 0.00 | 40 | 1009.8 |
| 20260902192449 | 94 | 112 | 0.0 | 0.0 | 0.00 | 0.00 | 0.00 | 41 | 1010.8 |
| 20260902191835 | 94 | 202 | 1.0 | 1.0 | 0.00 | 0.00 | 0.00 | 40 | 1010.8 |
| 20260902190627 | 95 | 315 | 3.0 | 3.0 | 0.00 | 0.00 | 0.00 | 37 | 1009.8 |
| 20260902190016 | 95 | 248 | 3.0 | 3.0 | 0.00 | 0.00 | 0.00 | 38 | 1009.8 |
| 20260902185448 | 95 | 338 | 1.0 | 1.0 | 0.00 | 0.00 | 0.00 | 36 | 1010.8 |
| 20260902184841 | 94 | 315 | 2.0 | 2.0 | 0.00 | 0.00 | 0.00 | 36 | 1010.8 |
| 20260902183609 | 92 | 248 | 3.0 | 3.0 | 0.00 | 0.00 | 0.00 | 44 | 1010.8 |
| 20260902183035 | 92 | 202 | 2.0 | 2.0 | 0.00 | 0.00 | 0.00 | 45 | 1010.8 |
| 20260902182443 | 92 | 225 | 2.0 | 2.0 | 0.00 | 0.00 | 0.00 | 48 | 1010.8 |
| 20260902181247 | 93 | 292 | 2.0 | 2.0 | 0.00 | 0.00 | 0.00 | 49 | 1010.8 |
| 20260902180645 | 93 | 248 | 2.0 | 2.0 | 0.00 | 0.00 | 0.00 | 46 | 1010.8 |
| 20260902180012 | 92 | 68 | 1.0 | 1.0 | 0.00 | 0.00 | 0.00 | 51 | 1010.8 |
| 20260902175423 | 92 | 112 | 2.0 | 2.0 | 0.00 | 0.00 | 0.00 | 52 | 1011.8 |
| 20260902174813 | 91 | 68 | 2.0 | 2.0 | 0.00 | 0.00 | 0.00 | 50 | 1011.8 |
| 20260902174234 | 92 | 248 | 2.0 | 2.0 | 0.00 | 0.00 | 0.00 | 49 | 1010.8 |
| 20260902173634 | 92 | 112 | 2.0 | 2.0 | 0.00 | 0.00 | 0.00 | 50 | 1010.8 |
| 20260902173028 | 91 | 180 | 2.0 | 2.0 | 0.00 | 0.00 | 0.00 | 48 | 1010.8 |
| 20260902172444 | 91 | 112 | 1.0 | 1.0 | 0.00 | 0.00 | 0.00 | 50 | 1011.8 |
| 20260902171817 | 90 | 180 | 0.0 | 0.0 | 0.00 | 0.00 | 0.00 | 51 | 1011.8 |
| 20260902171206 | 91 | 180 | 2.0 | 2.0 | 0.00 | 0.00 | 0.00 | 54 | 1011.8 |
| 20260902170647 | 92 | 68 | 1.0 | 1.0 | 0.00 | 0.00 | 0.00 | 54 | 1011.8 |
| 20260902170024 | 93 | 68 | 1.0 | 1.0 | 0.00 | 0.00 | 0.00 | 51 | 1011.8 |
| 20260902165424 | 92 | 112 | 2.0 | 2.0 | 0.00 | 0.00 | 0.00 | 50 | 1011.8 |
| 20260902164207 | 92 | 68 | 2.0 | 2.0 | 0.00 | 0.00 | 0.00 | 52 | 1011.8 |
| 20260902163612 | 92 | 270 | 2.0 | 2.0 | 0.00 | 0.00 | 0.00 | 52 | 1011.8 |
| 20260902163010 | 92 | 112 | 0.0 | 0.0 | 0.00 | 0.00 | 0.00 | 54 | 1011.8 |
| 20260902162424 | 91 | 112 | 0.0 | 0.0 | 0.00 | 0.00 | 0.00 | 57 | 1011.8 |
| 20260902161822 | 92 | 248 | 6.0 | 7.0 | 0.00 | 0.00 | 0.00 | 53 | 1011.8 |
| 20260902161215 | 91 | 248 | 2.0 | 2.0 | 0.00 | 0.00 | 0.00 | 54 | 1011.8 |
| 20260902160043 | 89 | 90 | 0.0 | 0.0 | 0.00 | 0.00 | 0.00 | 57 | 1011.8 |
| 20260902155438 | 88 | 90 | 2.0 | 2.0 | 0.00 | 0.00 | 0.00 | 64 | 1011.8 |
| 20260902154817 | 88 | 90 | 2.0 | 2.0 | 0.00 | 0.00 | 0.00 | 59 | 1011.8 |
| 20260902154230 | 88 | 68 | 3.0 | 3.0 | 0.00 | 0.00 | 0.00 | 63 | 1011.8 |
| 20260902153033 | 88 | 68 | 1.0 | 1.0 | 0.00 | 0.00 | 0.00 | 64 | 1011.8 |
| 20260902152412 | 88 | 68 | 2.0 | 2.0 | 0.00 | 0.00 | 0.00 | 66 | 1012.8 |
| 20260902151838 | 87 | 68 | 2.0 | 2.0 | 0.00 | 0.00 | 0.00 | 64 | 1012.8 |
| 20260902150029 | 86 | 68 | 2.0 | 2.0 | 0.00 | 0.00 | 0.00 | 68 | 1011.8 |
| 20260902145445 | 85 | 68 | 2.0 | 2.0 | 0.00 | 0.00 | 0.00 | 67 | 1011.8 |
| 20260902144233 | 85 | 68 | 0.0 | 0.0 | 0.00 | 0.00 | 0.00 | 68 | 1011.8 |
| 20260902143627 | 86 | 45 | 2.0 | 2.0 | 0.00 | 0.00 | 0.00 | 69 | 1011.8 |
| 20260902143043 | 87 | 45 | 2.0 | 2.0 | 0.00 | 0.00 | 0.00 | 65 | 1011.8 |
| 20260902142438 | 85 | 45 | 1.0 | 1.0 | 0.00 | 0.00 | 0.00 | 63 | 1011.8 |
| 20260902141822 | 84 | 45 | 0.0 | 0.0 | 0.00 | 0.00 | 0.00 | 66 | 1011.8 |
| 20260902141225 | 84 | 45 | 2.0 | 2.0 | 0.00 | 0.00 | 0.00 | 67 | 1011.8 |
| 20260902140643 | 82 | 45 | 0.0 | 0.0 | 0.00 | 0.00 | 0.00 | 66 | 1011.8 |
| 20260902140014 | 78 | 45 | 0.0 | 0.0 | 0.00 | 0.00 | 0.00 | 71 | 1011.8 |
| 20260902135430 | 77 | 45 | 0.0 | 0.0 | 0.00 | 0.00 | 0.00 | 80 | 1011.8 |
| 20260902134845 | 78 | 45 | 0.0 | 0.0 | 0.00 | 0.00 | 0.00 | 79 | 1011.8 |
| 20260902134207 | 77 | 292 | 0.0 | 0.0 | 0.00 | 0.00 | 0.00 | 76 | 1012.8 |
| 20260902133612 | 75 | 292 | 0.0 | 0.0 | 0.00 | 0.00 | 0.00 | 79 | 1012.8 |
| 20260902133016 | 73 | 292 | 0.0 | 0.0 | 0.00 | 0.00 | 0.00 | 82 | 1012.8 |
| 20260902132406 | 72 | 292 | 0.0 | 0.0 | 0.00 | 0.00 | 0.00 | 87 | 1011.8 |
| 20260902131229 | 71 | 292 | 0.0 | 0.0 | 0.00 | 0.00 | 0.00 | 89 | 1011.8 |
| 20260902130010 | 70 | 292 | 1.0 | 1.0 | 0.00 | 0.00 | 0.00 | 90 | 1011.8 |
| 20260902125429 | 70 | 338 | 0.0 | 0.0 | 0.00 | 0.00 | 0.00 | 91 | 1011.8 |
| 20260902123634 | 70 | 292 | 0.0 | 0.0 | 0.00 | 0.00 | 0.00 | 92 | 1011.8 |
| 20260902122449 | 70 | 270 | 0.0 | 0.0 | 0.00 | 0.00 | 0.00 | 92 | 1011.8 |
| 20260902121822 | 69 | 270 | 0.0 | 0.0 | 0.00 | 0.00 | 0.00 | 92 | 1011.8 |
| 20260902121239 | 69 | 270 | 0.0 | 0.0 | 0.00 | 0.00 | 0.00 | 92 | 1011.8 |
| 20260902120627 | 69 | 270 | 0.0 | 0.0 | 0.00 | 0.00 | 0.00 | 92 | 1011.8 |
| 20260902120044 | 69 | 270 | 0.0 | 0.0 | 0.00 | 0.00 | 0.00 | 92 | 1011.8 |
| 20260902115429 | 69 | 270 | 0.0 | 0.0 | 0.00 | 0.00 | 0.00 | 93 | 1012.8 |
| 20260902114825 | 69 | 270 | 0.0 | 0.0 | 0.00 | 0.00 | 0.00 | 93 | 1012.8 |
| 20260902114231 | 69 | 270 | 0.0 | 0.0 | 0.00 | 0.00 | 0.00 | 93 | 1011.8 |
| 20260902113642 | 69 | 270 | 0.0 | 0.0 | 0.00 | 0.00 | 0.00 | 93 | 1011.8 |
| 20260902113050 | 69 | 270 | 0.0 | 0.0 | 0.00 | 0.00 | 0.00 | 93 | 1011.8 |
| 20260902112431 | 69 | 270 | 0.0 | 0.0 | 0.00 | 0.00 | 0.00 | 93 | 1011.8 |
| 20260902111830 | 69 | 270 | 0.0 | 0.0 | 0.00 | 0.00 | 0.00 | 93 | 1011.8 |
| 20260902111235 | 69 | 270 | 0.0 | 0.0 | 0.00 | 0.00 | 0.00 | 93 | 1011.8 |
| 20260902110637 | 69 | 270 | 0.0 | 0.0 | 0.00 | 0.00 | 0.00 | 93 | 1011.8 |
| 20260902110025 | 69 | 270 | 2.0 | 2.0 | 0.00 | 0.00 | 0.00 | 93 | 1011.8 |
| 20260902105423 | 70 | 270 | 1.0 | 1.0 | 0.00 | 0.00 | 0.00 | 92 | 1011.8 |
| 20260902104809 | 70 | 270 | 1.0 | 1.0 | 0.00 | 0.00 | 0.00 | 92 | 1011.8 |
| 20260902103049 | 70 | 270 | 0.0 | 0.0 | 0.00 | 0.00 | 0.00 | 92 | 1011.8 |
| 20260902102410 | 70 | 248 | 0.0 | 0.0 | 0.00 | 0.00 | 0.00 | 92 | 1011.8 |
| 20260902101226 | 70 | 248 | 0.0 | 0.0 | 0.00 | 0.00 | 0.00 | 93 | 1011.8 |
| 20260902100647 | 70 | 248 | 0.0 | 0.0 | 0.00 | 0.00 | 0.00 | 93 | 1011.8 |
| 20260902100047 | 70 | 248 | 0.0 | 0.0 | 0.00 | 0.00 | 0.00 | 93 | 1011.8 |
| 20260902095431 | 70 | 248 | 0.0 | 0.0 | 0.00 | 0.00 | 0.00 | 92 | 1011.8 |
| 20260902094845 | 70 | 248 | 0.0 | 0.0 | 0.00 | 0.00 | 0.00 | 93 | 1011.8 |
| 20260902094218 | 70 | 248 | 0.0 | 0.0 | 0.00 | 0.00 | 0.00 | 93 | 1011.8 |
| 20260902093642 | 70 | 248 | 1.0 | 1.0 | 0.00 | 0.00 | 0.00 | 92 | 1011.8 |
| 20260902093025 | 70 | 248 | 0.0 | 0.0 | 0.00 | 0.00 | 0.00 | 93 | 1011.8 |
| 20260902092418 | 70 | 248 | 0.0 | 0.0 | 0.00 | 0.00 | 0.00 | 93 | 1011.8 |
| 20260902091820 | 70 | 248 | 0.0 | 0.0 | 0.00 | 0.00 | 0.00 | 93 | 1011.8 |
| 20260902091216 | 70 | 248 | 0.0 | 0.0 | 0.00 | 0.00 | 0.00 | 93 | 1010.8 |
| 20260902090613 | 70 | 248 | 0.0 | 0.0 | 0.00 | 0.00 | 0.00 | 93 | 1010.8 |
| 20260902090043 | 70 | 248 | 0.0 | 0.0 | 0.00 | 0.00 | 0.00 | 93 | 1010.8 |
| 20260902085434 | 70 | 248 | 1.0 | 1.0 | 0.00 | 0.00 | 0.00 | 92 | 1010.8 |
| 20260902084839 | 70 | 248 | 0.0 | 0.0 | 0.00 | 0.00 | 0.00 | 92 | 1010.8 |
| 20260902084212 | 70 | 248 | 1.0 | 1.0 | 0.00 | 0.00 | 0.00 | 93 | 1010.8 |
| 20260902083624 | 70 | 248 | 0.0 | 0.0 | 0.00 | 0.00 | 0.00 | 92 | 1010.8 |
| 20260902083037 | 71 | 248 | 2.0 | 2.0 | 0.00 | 0.00 | 0.00 | 92 | 1010.8 |
| 20260902082429 | 71 | 248 | 2.0 | 2.0 | 0.00 | 0.00 | 0.00 | 92 | 1010.8 |
| 20260902081822 | 71 | 248 | 0.0 | 0.0 | 0.00 | 0.00 | 0.00 | 92 | 1010.8 |
| 20260902080610 | 71 | 248 | 0.0 | 0.0 | 0.00 | 0.00 | 0.00 | 93 | 1011.8 |
| 20260902080014 | 71 | 248 | 0.0 | 0.0 | 0.00 | 0.00 | 0.00 | 93 | 1011.8 |
| 20260902074229 | 71 | 248 | 0.0 | 0.0 | 0.00 | 0.00 | 0.00 | 92 | 1011.8 |
| 20260902073616 | 71 | 248 | 0.0 | 0.0 | 0.00 | 0.00 | 0.00 | 92 | 1011.8 |
| 20260902073027 | 71 | 248 | 2.0 | 2.0 | 0.00 | 0.00 | 0.00 | 92 | 1011.8 |
| 20260902072443 | 71 | 248 | 0.0 | 0.0 | 0.00 | 0.00 | 0.00 | 92 | 1011.8 |
| 20260902071828 | 71 | 248 | 0.0 | 0.0 | 0.00 | 0.00 | 0.00 | 92 | 1011.8 |
| 20260902071230 | 71 | 248 | 0.0 | 0.0 | 0.00 | 0.00 | 0.00 | 92 | 1010.8 |
| 20260902070644 | 71 | 248 | 0.0 | 0.0 | 0.00 | 0.00 | 0.00 | 93 | 1010.8 |
| 20260902070017 | 71 | 248 | 0.0 | 0.0 | 0.00 | 0.00 | 0.00 | 93 | 1010.8 |
| 20260902065448 | 72 | 248 | 0.0 | 0.0 | 0.00 | 0.00 | 0.00 | 92 | 1010.8 |
| 20260902064838 | 72 | 248 | 0.0 | 0.0 | 0.00 | 0.00 | 0.00 | 92 | 1010.8 |
| 20260902064248 | 72 | 248 | 0.0 | 0.0 | 0.00 | 0.00 | 0.00 | 92 | 1011.8 |
| 20260902063632 | 72 | 248 | 2.0 | 2.0 | 0.00 | 0.00 | 0.00 | 92 | 1011.8 |
| 20260902063027 | 72 | 248 | 2.0 | 2.0 | 0.00 | 0.00 | 0.00 | 92 | 1011.8 |
| 20260902062406 | 72 | 248 | 0.0 | 0.0 | 0.00 | 0.00 | 0.00 | 92 | 1011.8 |
| 20260902061837 | 72 | 248 | 0.0 | 0.0 | 0.00 | 0.00 | 0.00 | 92 | 1011.8 |
| 20260902061209 | 72 | 248 | 0.0 | 0.0 | 0.00 | 0.00 | 0.00 | 92 | 1010.8 |
| 20260902060040 | 72 | 225 | 0.0 | 0.0 | 0.00 | 0.00 | 0.00 | 93 | 1010.8 |
| 20260902055429 | 72 | 225 | 0.0 | 0.0 | 0.00 | 0.00 | 0.00 | 93 | 1011.8 |
| 20260902054236 | 72 | 90 | 0.0 | 0.0 | 0.00 | 0.00 | 0.00 | 93 | 1010.8 |
| 20260902053613 | 72 | 90 | 0.0 | 0.0 | 0.00 | 0.00 | 0.00 | 93 | 1010.8 |
| 20260902053036 | 72 | 90 | 0.0 | 0.0 | 0.00 | 0.00 | 0.00 | 93 | 1010.8 |
| 20260902051834 | 73 | 338 | 0.0 | 0.0 | 0.00 | 0.00 | 0.00 | 92 | 1010.8 |
| 20260902051227 | 73 | 338 | 0.0 | 0.0 | 0.00 | 0.00 | 0.00 | 92 | 1010.8 |
| 20260902050618 | 73 | 338 | 0.0 | 0.0 | 0.00 | 0.00 | 0.00 | 92 | 1010.8 |
| 20260902050045 | 73 | 338 | 0.0 | 0.0 | 0.00 | 0.00 | 0.00 | 91 | 1010.8 |
| 20260902045448 | 74 | 338 | 0.0 | 0.0 | 0.00 | 0.00 | 0.00 | 91 | 1010.8 |
| 20260902044823 | 74 | 338 | 0.0 | 0.0 | 0.00 | 0.00 | 0.00 | 90 | 1010.8 |
| 20260902044213 | 74 | 338 | 0.0 | 0.0 | 0.00 | 0.00 | 0.00 | 88 | 1010.8 |
| 20260902043043 | 72 | 338 | 0.0 | 0.0 | 0.00 | 0.00 | 0.00 | 92 | 1010.8 |
| 20260902042435 | 72 | 338 | 0.0 | 0.0 | 0.00 | 0.00 | 0.00 | 92 | 1010.8 |
| 20260902041818 | 72 | 338 | 0.0 | 0.0 | 0.00 | 0.00 | 0.00 | 92 | 1010.8 |
| 20260902041251 | 72 | 338 | 0.0 | 0.0 | 0.00 | 0.00 | 0.00 | 92 | 1010.8 |
| 20260902040647 | 72 | 338 | 0.0 | 0.0 | 0.00 | 0.00 | 0.00 | 93 | 1010.8 |
| 20260902040038 | 72 | 338 | 0.0 | 0.0 | 0.00 | 0.00 | 0.00 | 93 | 1010.8 |
| 20260902035430 | 72 | 338 | 0.0 | 0.0 | 0.00 | 0.00 | 0.00 | 93 | 1010.8 |
| 20260902034242 | 72 | 338 | 0.0 | 0.0 | 0.00 | 0.00 | 0.00 | 93 | 1010.8 |
| 20260902033647 | 72 | 338 | 0.0 | 0.0 | 0.00 | 0.00 | 0.00 | 93 | 1010.8 |
| 20260902033012 | 72 | 338 | 0.0 | 0.0 | 0.00 | 0.00 | 0.00 | 93 | 1010.8 |
| 20260902032448 | 72 | 338 | 0.0 | 0.0 | 0.00 | 0.00 | 0.00 | 93 | 1010.8 |
| 20260902031839 | 72 | 338 | 0.0 | 0.0 | 0.00 | 0.00 | 0.00 | 93 | 1010.8 |
| 20260902031230 | 73 | 338 | 0.0 | 0.0 | 0.00 | 0.00 | 0.00 | 92 | 1010.8 |
| 20260902030631 | 73 | 338 | 0.0 | 0.0 | 0.00 | 0.00 | 0.00 | 92 | 1010.8 |
| 20260902030014 | 73 | 338 | 0.0 | 0.0 | 0.00 | 0.00 | 0.00 | 92 | 1010.8 |
| 20260902024214 | 73 | 338 | 0.0 | 0.0 | 0.00 | 0.00 | 0.00 | 91 | 1010.8 |
| 20260902023023 | 74 | 338 | 0.0 | 0.0 | 0.00 | 0.00 | 0.00 | 91 | 1010.8 |
| 20260902021816 | 75 | 338 | 0.0 | 0.0 | 0.00 | 0.00 | 0.00 | 90 | 1010.8 |
| 20260902021246 | 75 | 338 | 0.0 | 0.0 | 0.00 | 0.00 | 0.00 | 87 | 1010.8 |
| 20260902020623 | 75 | 338 | 1.0 | 1.0 | 0.00 | 0.00 | 0.00 | 88 | 1010.8 |
| 20260902020023 | 75 | 338 | 0.0 | 0.0 | 0.00 | 0.00 | 0.00 | 89 | 1010.8 |
| 20260902015432 | 75 | 338 | 0.0 | 0.0 | 0.00 | 0.00 | 0.00 | 88 | 1010.8 |
| 20260902014811 | 75 | 45 | 2.0 | 2.0 | 0.00 | 0.00 | 0.00 | 89 | 1010.8 |
| 20260902014231 | 75 | 45 | 0.0 | 0.0 | 0.00 | 0.00 | 0.00 | 89 | 1010.8 |
| 20260902013647 | 75 | 45 | 0.0 | 0.0 | 0.00 | 0.00 | 0.00 | 89 | 1010.8 |
| 20260902013044 | 75 | 45 | 0.0 | 0.0 | 0.00 | 0.00 | 0.00 | 89 | 1010.8 |
| 20260902012426 | 75 | 68 | 0.0 | 0.0 | 0.00 | 0.00 | 0.00 | 88 | 1010.8 |
| 20260902011824 | 76 | 68 | 0.0 | 0.0 | 0.00 | 0.00 | 0.00 | 87 | 1010.8 |
| 20260902011249 | 76 | 68 | 0.0 | 0.0 | 0.00 | 0.00 | 0.00 | 87 | 1009.8 |
| 20260902010627 | 76 | 68 | 1.0 | 1.0 | 0.00 | 0.00 | 0.00 | 88 | 1009.8 |
| 20260902004807 | 76 | 68 | 1.0 | 1.0 | 0.00 | 0.00 | 0.00 | 88 | 1009.8 |
| 20260902004231 | 76 | 68 | 0.0 | 0.0 | 0.00 | 0.00 | 0.00 | 87 | 1009.8 |
| 20260902003648 | 76 | 68 | 1.0 | 1.0 | 0.00 | 0.00 | 0.00 | 87 | 1009.8 |
| 20260902003026 | 77 | 338 | 2.0 | 2.0 | 0.00 | 0.00 | 0.00 | 87 | 1009.8 |
| 20260902001832 | 77 | 338 | 0.0 | 0.0 | 0.00 | 0.00 | 0.00 | 86 | 1009.8 |
| 20260902001250 | 78 | 338 | 0.0 | 0.0 | 0.00 | 0.00 | 0.00 | 85 | 1009.8 |
| 20260902000646 | 79 | 338 | 0.0 | 0.0 | 0.00 | 0.00 | 0.00 | 83 | 1009.8 |
| 20260902000008 | 79 | 338 | 2.0 | 2.0 | 0.00 | 0.00 | 0.00 | 83 | 1009.8 |
| 20260901235425 | 79 | 338 | 0.0 | 0.0 | 0.00 | 0.00 | 0.00 | 82 | 1009.8 |
| 20260901234817 | 79 | 338 | 0.0 | 0.0 | 0.00 | 0.00 | 0.00 | 81 | 1009.8 |
| 20260901234248 | 80 | 338 | 0.0 | 0.0 | 0.00 | 0.00 | 0.00 | 81 | 1009.8 |
| 20260901233618 | 80 | 338 | 0.0 | 0.0 | 0.00 | 0.00 | 0.00 | 79 | 1009.8 |
| 20260901233023 | 81 | 338 | 0.0 | 0.0 | 0.00 | 0.00 | 0.00 | 79 | 1009.8 |
| 20260901232439 | 82 | 338 | 0.0 | 0.0 | 0.00 | 0.00 | 0.00 | 75 | 1009.8 |
| 20260901231820 | 82 | 338 | 0.0 | 0.0 | 0.00 | 0.00 | 0.00 | 74 | 1009.8 |
| 20260901231211 | 82 | 338 | 2.0 | 2.0 | 0.00 | 0.00 | 0.00 | 74 | 1009.8 |
| 20260901230012 | 84 | 338 | 0.0 | 0.0 | 0.00 | 0.00 | 0.00 | 71 | 1009.8 |
| 20260901224843 | 86 | 338 | 2.0 | 2.0 | 0.00 | 0.00 | 0.00 | 67 | 1009.8 |
| 20260901224227 | 88 | 338 | 0.0 | 0.0 | 0.00 | 0.00 | 0.00 | 66 | 1009.8 |
| 20260901223610 | 90 | 338 | 1.0 | 1.0 | 0.00 | 0.00 | 0.00 | 62 | 1009.8 |
| 20260901223026 | 90 | 338 | 1.0 | 1.0 | 0.00 | 0.00 | 0.00 | 58 | 1009.8 |
| 20260901222408 | 89 | 338 | 2.0 | 2.0 | 0.00 | 0.00 | 0.00 | 59 | 1009.8 |
| 20260901221818 | 88 | 338 | 0.0 | 0.0 | 0.00 | 0.00 | 0.00 | 60 | 1009.8 |
| 20260901221208 | 89 | 338 | 0.0 | 0.0 | 0.00 | 0.00 | 0.00 | 62 | 1009.8 |
| 20260901220050 | 92 | 338 | 0.0 | 0.0 | 0.00 | 0.00 | 0.00 | 58 | 1009.8 |
| 20260901215424 | 92 | 338 | 0.0 | 0.0 | 0.00 | 0.00 | 0.00 | 55 | 1009.8 |
| 20260901214808 | 90 | 338 | 0.0 | 0.0 | 0.00 | 0.00 | 0.00 | 58 | 1009.8 |
| 20260901214217 | 88 | 22 | 1.0 | 1.0 | 0.00 | 0.00 | 0.00 | 61 | 1009.8 |
| 20260901213621 | 87 | 68 | 1.0 | 1.0 | 0.00 | 0.00 | 0.00 | 65 | 1009.8 |
| 20260901213041 | 87 | 68 | 0.0 | 0.0 | 0.00 | 0.00 | 0.00 | 64 | 1009.8 |
| 20260901212422 | 87 | 68 | 1.0 | 1.0 | 0.00 | 0.00 | 0.00 | 63 | 1009.8 |
| 20260901211846 | 86 | 68 | 0.0 | 0.0 | 0.00 | 0.00 | 0.00 | 64 | 1009.8 |
| 20260901211230 | 86 | 90 | 1.0 | 1.0 | 0.00 | 0.00 | 0.00 | 65 | 1009.8 |
| 20260901210641 | 86 | 90 | 2.0 | 2.0 | 0.00 | 0.00 | 0.00 | 66 | 1009.8 |
| 20260901210006 | 88 | 68 | 1.0 | 1.0 | 0.00 | 0.00 | 0.00 | 65 | 1009.8 |
| 20260901205447 | 89 | 315 | 1.0 | 1.0 | 0.00 | 0.00 | 0.00 | 61 | 1009.8 |
| 20260901204809 | 91 | 315 | 2.0 | 2.0 | 0.00 | 0.00 | 0.00 | 59 | 1009.8 |
| 20260901204240 | 92 | 292 | 1.0 | 1.0 | 0.00 | 0.00 | 0.00 | 55 | 1010.8 |
| 20260901203613 | 91 | 270 | 2.0 | 2.0 | 0.00 | 0.00 | 0.00 | 57 | 1010.8 |
| 20260901203012 | 90 | 90 | 0.0 | 0.0 | 0.00 | 0.00 | 0.00 | 55 | 1010.8 |
| 20260901202421 | 90 | 90 | 2.0 | 2.0 | 0.00 | 0.00 | 0.00 | 52 | 1009.8 |
| 20260901201234 | 90 | 68 | 2.0 | 2.0 | 0.00 | 0.00 | 0.00 | 51 | 1009.8 |
| 20260901200609 | 90 | 68 | 0.0 | 0.0 | 0.00 | 0.00 | 0.00 | 56 | 1009.8 |